Flag for France Weather past 2 weeks in Besançon, France

Now
54 °F

Clear.


Feels Like: 53 °F
Forecast: 44 / 72 °F
Wind: 5 mph from North

Location: Dole Tavaux

Current Time: Aug 21, 2014 at 9:11:25 AM

Latest Report: Aug 21, 2014 at 8:30 AM


Visibility: N/A

Pressure: 30.09 "Hg

Humidity: 82%

Dew point: 48 °F

Location of BesançonLocation

Historic Weather in Besançon — Graph

°F

Besançon temperature yesterday

Maximum temperature yesterday: 70 °F (at 1:30 PM)
Minimum temperature yesterday: 50 °F (at 7:00 AM)
Average temperature yesterday: 61 °F

Past Weeks' High & Low Weather Summary

 TemperatureHumidityPressure
High84 °F (Aug 10, 4:30 PM)100% (Aug 6, 7:00 AM)30.21 "Hg (Aug 6, 7:00 AM)
Low46 °F (Aug 21, 6:00 AM)38% (Aug 19, 4:30 PM)29.68 "Hg (Aug 13, 6:30 AM)
Average64 °F75%29.98 "Hg
* Reported Aug 6 7:00 AM — Aug 21 7:30 AM, Besançon, Weather by CustomWeather, © 2014

Note: Actual official high and low records may vary slightly from our data, if they occured in-between our weather recording intervals... More about our weather records

Advertising

Besançon weather history for previous 24 hours

 ConditionsComfort  
Time TempWeatherWind HumidityBarometerVisibility
7:30 AM
Aug 21
48 °FClear.1 mph94%30.09 "HgN/A
7:00 AM48 °FClear.2 mph94%30.09 "HgN/A
6:30 AM48 °FClear.5 mph94%30.09 "HgN/A
6:00 AM46 °FClear.No wind100%30.09 "HgN/A
5:30 AM48 °FClear.3 mph87%30.09 "Hg6 mi
5:00 AM50 °FClear.2 mph88%30.09 "HgN/A
4:30 AM50 °FClear.No wind94%30.07 "HgN/A
4:00 AM52 °FClear.2 mph88%30.09 "HgN/A
3:30 AM54 °FClear.3 mph88%30.09 "HgN/A
3:00 AM54 °FClear.3 mph88%30.09 "HgN/A
2:30 AM55 °FClear.1 mph82%30.07 "HgN/A
1:30 AM57 °FClear.2 mph77%30.09 "HgN/A
1:00 AM57 °FClear.3 mph77%30.09 "HgN/A
12:30 AM57 °FClear.2 mph82%30.09 "HgN/A
12:00 AM59 °FClear.No wind77%30.07 "HgN/A
11:30 PM
Aug 20
59 °FClear.No wind77%30.07 "HgN/A
11:00 PM59 °FClear.1 mph77%30.07 "HgN/A
10:30 PM61 °FClear.No wind72%30.07 "HgN/A
10:00 PM61 °FClear.2 mph68%30.07 "HgN/A
9:30 PM61 °FClear.5 mph72%30.04 "HgN/A
9:00 PM63 °FClear.5 mph64%30.04 "HgN/A
8:30 PM63 °FClear.5 mph64%30.04 "HgN/A
8:00 PM63 °FClear.5 mph64%30.04 "HgN/A
7:30 PM64 °FClear.8 mph56%30.01 "HgN/A
7:00 PM68 °FClear.10 mph49%30.01 "HgN/A
6:30 PM68 °FClear.12 mph49%30.01 "HgN/A
6:00 PM68 °FClear.12 mph53%30.01 "HgN/A
5:30 PM68 °FClear.8 mph49%30.01 "HgN/A
5:00 PM70 °FClear.7 mph40%30.01 "HgN/A
4:30 PM70 °FClear.5 mph40%30.01 "HgN/A
4:00 PM70 °FClear.5 mph38%30.01 "HgN/A
3:30 PM70 °FClear.3 mph40%30.01 "HgN/A
3:00 PM68 °FClear.1 mph40%30.01 "HgN/A
2:30 PM68 °FClear.3 mph43%30.01 "HgN/A
2:00 PM68 °FClear.3 mph46%30.01 "HgN/A
1:30 PM70 °FClear.2 mph40%30.01 "HgN/A
1:00 PM68 °FMore clouds than sun.3 mph49%30.01 "HgN/A
12:30 PM68 °FClear.7 mph53%30.04 "HgN/A
12:00 PM66 °FPartly sunny.2 mph56%30.04 "HgN/A
11:30 AM66 °FClear.No wind56%30.04 "HgN/A
11:00 AM64 °FClear.2 mph68%30.04 "HgN/A
10:30 AM63 °FClear.3 mph68%30.04 "HgN/A
10:00 AM61 °FClear.5 mph72%30.04 "HgN/A
9:30 AM61 °FClear.2 mph72%30.04 "HgN/A
9:00 AM57 °FClear.No wind77%30.04 "HgN/A
Weather by CustomWeather, © 2014

See weather overviewHow to use our weather pages